Location: Recife
(8.0585°S, 34.8848°W)
Time: 12:28:57
(UTC-03:00)

Courier 1B - Pass Details

Date: 17 April 2026
Orbit: 962 x 1209 km, 28.3° (Epoch: 7 May)

Event Time Altitude Azimuth Distance (km) Brightness Sun altitude
Rises 01:38:56 0° 335° (NNW) 3,783 - -55.5°
Reaches altitude 10° 01:43:03 10° 359° (N) 2,888 - -54.4°
Maximum altitude 01:46:45 15° 31° (NNE) 2,602 - -53.5°
Exits shadow 01:50:04 11° 59° (ENE) 2,907 10.3 -52.7°
Drops below altitude 10° 01:50:33 10° 62° (ENE) 2,991 10.4 -52.6°
Sets 01:54:56 0° 84° (E) 4,006 11.3 -51.5°
